Tracking 35019 objects as of 13-Aug-2026
HD Live streaming from Space Station
objects crossing your sky now

ASTROLINE-3

Track ASTROLINE-3 now!
10-day predictions
ASTROLINE-3 is classified as:


NORAD ID: 64886
Int'l Code: 2025-155L
Launch date: July 25, 2025
Source: (TBD)
Launch site: VOSTOCHNY COSMODROME (VOSTO)

Uplink (MHz):
Downlink (MHz):
Beacon (MHz):
Mode: LoRa
Call sign:
Status: Active

Your satellite tracking list
Your tracking list is empty




NASA's NSSDC Master Catalog

Two Line Element Set (TLE):
1 64886U 25155L   26224.59097047  .00019778  00000-0  41948-3 0  9998
2 64886  97.4495 196.7994 0004095 353.0424   7.0767 15.45094151 89634
Source of the keplerian elements: AFSPC